Tracking 30072 objects as of 14-Jan-2025
HD Live streaming from Space Station
objects crossing your sky now

STARLINK-2481

Track STARLINK-2481 now!
10-day predictions
STARLINK-2481 is classified as:


NORAD ID: 48138
Int'l Code: 2021-027AY
Perigee: 553.4 km
Apogee: 555.2 km
Inclination: 53.1 °
Period: 95.6 minutes
Semi major axis: 6925 km
RCS: Unknown
Launch date: April 7, 2021
Source: United States (US)
Launch site: AIR FORCE EASTERN TEST RANGE (AFETR)
Your satellite tracking list
Your tracking list is empty




NASA's NSSDC Master Catalog

Two Line Element Set (TLE):
1 48138U 21027AY  25013.40790853  .00006281  00000-0  44002-3 0  9993
2 48138  53.0534 258.3367 0001352  88.5208 271.5936 15.06412391209075
Source of the keplerian elements: AFSPC